GW6270 Weather Reports


Display with metric or nautical units.
time (UTC)temp
F
wind
direction
speed
MPH
gust
MPH
rain 1hr
in
rain 24hr
in
rain mn
in
humidity
%
barometer
mb
20260502223329 71 340 4.0 7.0 0.00 0.00 0.00 29 1016.9
20260502222826 71 23 2.0 4.0 0.00 0.00 0.00 28 1016.9
20260502222323 72 37 2.0 8.0 0.00 0.00 0.00 28 1016.8
20260502221819 71 197 0.0 1.0 0.00 0.00 0.00 27 1017.0
20260502221315 73 46 2.0 6.0 0.00 0.00 0.00 27 1017.0
20260502220813 74 200 0.0 4.0 0.00 0.00 0.00 27 1017.2
20260502220308 74 197 1.0 2.0 0.00 0.00 0.00 26 1017.0
20260502215806 73 144 0.0 2.0 0.00 0.00 0.00 26 1017.0
20260502215304 72 40 3.0 4.0 0.00 0.00 0.00 27 1017.0
20260502214800 71 47 2.0 3.0 0.00 0.00 0.00 28 1017.4
20260502214256 72 12 4.0 6.0 0.00 0.00 0.00 28 1017.3
20260502213754 70 206 0.0 1.0 0.00 0.00 0.00 29 1017.2
20260502213251 69 154 1.0 3.0 0.00 0.00 0.00 29 1017.4
20260502212750 70 53 2.0 2.0 0.00 0.00 0.00 29 1017.5
20260502212247 69 100 1.0 3.0 0.00 0.00 0.00 30 1017.7
20260502211743 70 4 4.0 7.0 0.00 0.00 0.00 29 1017.7
20260502211240 71 49 5.0 7.0 0.00 0.00 0.00 29 1017.7
20260502210737 73 7 7.0 8.0 0.00 0.00 0.00 27 1017.7
20260502210234 72 54 1.0 3.0 0.00 0.00 0.00 27 1017.7
20260502205732 72 189 3.0 3.0 0.00 0.00 0.00 27 1017.9
20260502205227 71 184 3.0 4.0 0.00 0.00 0.00 28 1017.9
20260502204725 69 246 1.0 2.0 0.00 0.00 0.00 30 1018.0
20260502204222 69 357 2.0 4.0 0.00 0.00 0.00 30 1018.2
20260502203720 70 359 1.0 6.0 0.00 0.00 0.00 29 1018.0
20260502203218 69 111 1.0 1.0 0.00 0.00 0.00 30 1018.2
20260502202711 69 121 2.0 3.0 0.00 0.00 0.00 31 1018.2
20260502202210 70 64 2.0 6.0 0.00 0.00 0.00 30 1018.3
20260502201708 71 58 5.0 8.0 0.00 0.00 0.00 30 1018.2
20260502201204 71 36 2.0 4.0 0.00 0.00 0.00 30 1018.0
20260502200659 72 114 2.0 3.0 0.00 0.00 0.00 29 1018.4
20260502200156 70 189 1.0 3.0 0.00 0.00 0.00 30 1018.5
20260502195655 70 166 1.0 4.0 0.00 0.00 0.00 30 1018.5
20260502195151 70 162 2.0 4.0 0.00 0.00 0.00 29 1018.5
20260502194647 69 108 1.0 3.0 0.00 0.00 0.00 29 1018.5
20260502194144 70 193 3.0 4.0 0.00 0.00 0.00 29 1018.5
20260502193641 69 36 3.0 4.0 0.00 0.00 0.00 30 1018.5
20260502193138 70 192 2.0 3.0 0.00 0.00 0.00 28 1018.8
20260502192633 70 142 0.0 3.0 0.00 0.00 0.00 29 1018.8
20260502192131 69 110 1.0 2.0 0.00 0.00 0.00 30 1019.1
20260502191627 70 65 3.0 3.0 0.00 0.00 0.00 29 1019.1
20260502191125 69 137 2.0 3.0 0.00 0.00 0.00 29 1019.1
20260502190622 69 158 2.0 3.0 0.00 0.00 0.00 29 1018.9
20260502190120 69 118 2.0 6.0 0.00 0.00 0.00 28 1019.1
20260502185614 69 185 4.0 7.0 0.00 0.00 0.00 30 1019.3
20260502185111 68 9 5.0 9.0 0.00 0.00 0.00 30 1019.2
20260502184608 68 304 1.0 7.0 0.00 0.00 0.00 31 1019.3
20260502184103 68 56 1.0 6.0 0.00 0.00 0.00 31 1019.4
20260502183600 68 43 3.0 7.0 0.00 0.00 0.00 30 1019.5
20260502183056 67 117 1.0 7.0 0.00 0.00 0.00 32 1019.6
20260502182551 67 42 3.0 4.0 0.00 0.00 0.00 31 1019.7
20260502182047 68 66 5.0 6.0 0.00 0.00 0.00 32 1019.6
20260502181545 67 156 0.0 6.0 0.00 0.00 0.00 32 1019.6
20260502181044 67 43 8.0 9.0 0.00 0.00 0.00 32 1019.8
20260502180540 66 60 4.0 7.0 0.00 0.00 0.00 33 1019.7
20260502170459 64 184 0.0 2.0 0.00 0.00 0.00 34 1020.2
20260502163943 64 198 0.0 3.0 0.00 0.00 0.00 36 1020.4
20260502163439 62 87 0.0 2.0 0.00 0.00 0.00 37 1020.2
20260502162937 60 191 2.0 4.0 0.00 0.00 0.00 39 1020.2
20260502162433 60 200 1.0 6.0 0.00 0.00 0.00 38 1020.5
20260502161930 60 185 1.0 2.0 0.00 0.00 0.00 38 1020.5
20260502161426 60 195 4.0 6.0 0.00 0.00 0.00 38 1020.5
20260502160925 62 207 1.0 2.0 0.00 0.00 0.00 36 1020.4
20260502160422 60 136 1.0 3.0 0.00 0.00 0.00 37 1020.5
20260502151855 58 119 1.0 3.0 0.00 0.00 0.00 40 1020.6
20260502151351 56 143 1.0 2.0 0.00 0.00 0.00 41 1020.2
20260502150849 56 186 2.0 3.0 0.00 0.00 0.00 42 1020.4
20260502150345 56 175 2.0 4.0 0.00 0.00 0.00 42 1020.4
20260502130733 48 206 1.0 4.0 0.00 0.00 0.00 55 1019.3
20260502130231 47 241 1.0 2.0 0.00 0.00 0.00 56 1019.4
20260502123717 46 211 1.0 2.0 0.00 0.00 0.00 56 1018.6
20260502123214 46 184 0.0 1.0 0.00 0.00 0.00 55 1018.7
20260502122710 46 215 2.0 3.0 0.00 0.00 0.00 55 1018.6
20260502122206 46 199 1.0 6.0 0.00 0.00 0.00 55 1018.5
20260502121705 46 204 2.0 6.0 0.00 0.00 0.00 55 1018.5
20260502121203 46 220 2.0 6.0 0.00 0.00 0.00 54 1018.3
20260502120659 46 200 4.0 6.0 0.00 0.00 0.00 54 1018.4
20260502120155 46 212 3.0 6.0 0.00 0.00 0.00 53 1018.2
20260502115653 46 202 1.0 4.0 0.00 0.00 0.00 52 1018.1
20260502115149 47 238 2.0 3.0 0.00 0.00 0.00 51 1018.0
20260502114646 47 223 2.0 4.0 0.00 0.00 0.00 51 1018.2
20260502114143 47 212 5.0 6.0 0.00 0.00 0.00 50 1018.2
20260502113640 47 219 2.0 4.0 0.00 0.00 0.00 50 1018.1
20260502113138 47 223 2.0 6.0 0.00 0.00 0.00 50 1018.1
20260502112636 47 226 4.0 7.0 0.00 0.00 0.00 49 1018.0
20260502112133 47 232 2.0 6.0 0.00 0.00 0.00 50 1018.0
20260502111631 47 215 2.0 4.0 0.00 0.00 0.00 50 1018.0
20260502111128 48 224 2.0 4.0 0.00 0.00 0.00 49 1018.0
20260502110626 48 205 3.0 6.0 0.00 0.00 0.00 49 1017.8
20260502110123 48 228 2.0 4.0 0.00 0.00 0.00 49 1017.8
20260502105620 48 219 2.0 3.0 0.00 0.00 0.00 49 1017.7
20260502105117 48 216 2.0 4.0 0.00 0.00 0.00 49 1017.8
20260502104614 47 227 2.0 2.0 0.00 0.00 0.00 50 1017.7
20260502104112 47 214 1.0 3.0 0.00 0.00 0.00 50 1017.3
20260502103609 47 240 3.0 3.0 0.00 0.00 0.00 50 1017.8
20260502103108 47 275 2.0 2.0 0.00 0.00 0.00 50 1017.4
20260502102603 48 199 0.0 1.0 0.00 0.00 0.00 50 1017.3
20260502102100 48 120 0.0 1.0 0.00 0.00 0.00 49 1017.2
20260502101558 48 180 0.0 1.0 0.00 0.00 0.00 49 1017.0
20260502101057 48 199 0.0 1.0 0.00 0.00 0.00 48 1016.9
20260502100554 49 176 0.0 1.0 0.00 0.00 0.00 48 1016.8
20260502091529 48 224 2.0 3.0 0.00 0.00 0.00 51 1016.7
20260502091027 48 222 2.0 4.0 0.00 0.00 0.00 51 1016.7
20260502090523 48 196 1.0 3.0 0.00 0.00 0.00 51 1016.5
20260502071418 51 200 0.0 0.0 0.00 0.00 0.00 48 1016.4
20260502070916 52 200 0.0 1.0 0.00 0.00 0.00 48 1016.4
20260502070414 53 199 0.0 0.0 0.00 0.00 0.00 46 1016.2
20260502065912 54 199 0.0 0.0 0.00 0.00 0.00 44 1016.2
20260502065410 54 200 1.0 1.0 0.00 0.00 0.00 43 1016.0
20260502064908 55 190 1.0 1.0 0.00 0.00 0.00 42 1016.1
20260502064406 55 201 2.0 2.0 0.00 0.00 0.00 42 1015.9
20260502063902 55 223 2.0 2.0 0.00 0.00 0.00 42 1016.1
20260502063400 54 205 2.0 3.0 0.00 0.00 0.00 43 1016.0
20260502062858 54 195 0.0 2.0 0.00 0.00 0.00 43 1015.8
20260502062355 55 195 0.0 1.0 0.00 0.00 0.00 43 1016.0
20260502061854 55 198 1.0 1.0 0.00 0.00 0.00 42 1015.8
20260502061351 54 209 2.0 6.0 0.00 0.00 0.00 43 1015.8
20260502060846 53 197 2.0 2.0 0.00 0.00 0.00 45 1015.8
20260502060342 52 137 0.0 0.0 0.00 0.00 0.00 45 1015.9
20260502055839 52 136 0.0 0.0 0.00 0.00 0.00 45 1015.7
20260502055337 53 136 0.0 0.0 0.00 0.00 0.00 44 1015.8
20260502054837 53 136 0.0 1.0 0.00 0.00 0.00 43 1015.6
20260502054334 54 136 0.0 1.0 0.00 0.00 0.00 42 1015.8
20260502053831 55 135 0.0 1.0 0.00 0.00 0.00 42 1015.6
20260502053328 56 189 0.0 0.0 0.00 0.00 0.00 39 1015.4
20260502052826 56 189 0.0 0.0 0.00 0.00 0.00 39 1015.7
20260502052324 56 208 0.0 1.0 0.00 0.00 0.00 39 1015.5
20260502051821 56 193 1.0 2.0 0.00 0.00 0.00 40 1015.5
20260502051320 56 221 2.0 2.0 0.00 0.00 0.00 41 1015.6
20260502050816 55 194 2.0 3.0 0.00 0.00 0.00 41 1015.3
20260502050312 56 202 0.0 1.0 0.00 0.00 0.00 41 1015.6
20260502045810 57 203 2.0 3.0 0.00 0.00 0.00 40 1015.4
20260502045306 58 209 3.0 4.0 0.00 0.00 0.00 39 1015.6
20260502044803 57 198 3.0 3.0 0.00 0.00 0.00 39 1015.7
20260502044259 56 237 2.0 2.0 0.00 0.00 0.00 40 1015.7
20260502043757 56 187 0.0 0.0 0.00 0.00 0.00 44 1015.4
20260502043254 56 114 0.0 1.0 0.00 0.00 0.00 43 1015.3
20260502042753 56 113 0.0 0.0 0.00 0.00 0.00 43 1015.4
20260502042251 56 113 0.0 0.0 0.00 0.00 0.00 42 1015.3
20260502041748 56 113 0.0 0.0 0.00 0.00 0.00 43 1015.3
20260502041246 57 113 0.0 0.0 0.00 0.00 0.00 42 1015.1
20260502040742 57 113 0.0 0.0 0.00 0.00 0.00 41 1014.8
20260502040239 57 113 0.0 0.0 0.00 0.00 0.00 41 1014.9
20260502035735 58 113 0.0 0.0 0.00 0.00 0.00 40 1014.9
20260502035232 58 112 0.0 1.0 0.00 0.00 0.00 40 1015.1
20260502034730 58 113 0.0 1.0 0.00 0.00 0.00 40 1015.1
20260502034228 59 113 0.0 1.0 0.00 0.00 0.00 39 1015.1
20260502033725 59 113 0.0 0.0 0.00 0.00 0.00 39 1015.1
20260502033223 59 91 0.0 0.0 0.00 0.00 0.00 40 1014.9
20260502032720 60 133 0.0 1.0 0.00 0.00 0.00 41 1014.8
20260502032215 61 115 1.0 1.0 0.00 0.00 0.00 37 1014.8
20260502031714 61 91 1.0 1.0 0.00 0.00 0.00 36 1014.8
20260502031211 61 159 0.0 0.0 0.00 0.00 0.00 35 1014.9
20260502030710 62 159 0.0 0.0 0.00 0.00 0.00 34 1014.7
20260502030208 63 158 0.0 1.0 0.00 0.00 0.00 34 1014.6
20260502025704 64 158 0.0 0.0 0.00 0.00 0.00 32 1014.7
20260502025202 65 157 0.0 0.0 0.00 0.00 0.00 31 1014.5
20260502024700 66 157 0.0 0.0 0.00 0.00 0.00 31 1014.5
20260502024158 68 199 0.0 0.0 0.00 0.00 0.00 30 1014.5
20260502023655 69 200 0.0 0.0 0.00 0.00 0.00 28 1014.6
20260502023153 70 201 0.0 1.0 0.00 0.00 0.00 27 1014.5
20260502022649 72 185 0.0 1.0 0.00 0.00 0.00 25 1014.5
20260502022146 73 193 2.0 2.0 0.00 0.00 0.00 23 1014.4
20260502021644 73 188 2.0 3.0 0.00 0.00 0.00 22 1014.3
20260502021141 73 187 2.0 2.0 0.00 0.00 0.00 22 1014.3
20260502020638 74 185 1.0 2.0 0.00 0.00 0.00 22 1014.4
20260502020135 74 187 2.0 2.0 0.00 0.00 0.00 21 1014.4
20260502015633 75 196 0.0 0.0 0.00 0.00 0.00 21 1014.4
20260502015129 75 196 1.0 1.0 0.00 0.00 0.00 18 1014.3
20260502014626 76 197 1.0 1.0 0.00 0.00 0.00 19 1014.2
20260502014123 76 190 1.0 2.0 0.00 0.00 0.00 18 1014.4
20260502013619 76 188 0.0 2.0 0.00 0.00 0.00 18 1014.3
20260502013115 77 195 0.0 1.0 0.00 0.00 0.00 18 1014.2
20260502012613 77 204 1.0 1.0 0.00 0.00 0.00 17 1014.3
20260502012111 78 221 1.0 2.0 0.00 0.00 0.00 18 1014.3
20260502011607 79 199 1.0 1.0 0.00 0.00 0.00 18 1014.5
20260502011103 78 212 0.0 0.0 0.00 0.00 0.00 17 1014.5
20260502010600 77 222 1.0 1.0 0.00 0.00 0.00 18 1014.3
20260502010056 77 258 2.0 2.0 0.00 0.00 0.00 18 1014.5
20260502005555 77 227 1.0 3.0 0.00 0.00 0.00 18 1014.5
20260502005052 77 224 1.0 3.0 0.00 0.00 0.00 18 1014.5
20260502004547 78 282 4.0 6.0 0.00 0.00 0.00 17 1014.5
20260502004044 79 263 4.0 6.0 0.00 0.00 0.00 17 1014.4
20260502003543 80 224 1.0 4.0 0.00 0.00 0.00 17 1014.6
20260502003039 80 222 1.0 2.0 0.00 0.00 0.00 16 1014.6
20260502002536 80 286 3.0 3.0 0.00 0.00 0.00 16 1014.6
20260502002033 80 240 3.0 3.0 0.00 0.00 0.00 16 1014.7
20260502001531 80 242 1.0 2.0 0.00 0.00 0.00 16 1014.5
20260502001027 79 260 2.0 4.0 0.00 0.00 0.00 17 1014.6
20260502000526 79 224 2.0 2.0 0.00 0.00 0.00 17 1014.7
20260502000023 78 260 2.0 4.0 0.00 0.00 0.00 17 1014.9
20260501235518 79 216 6.0 7.0 0.00 0.00 0.00 17 1014.7
20260501235014 79 222 2.0 6.0 0.00 0.00 0.00 17 1014.8
20260501234510 79 195 6.0 9.0 0.00 0.00 0.00 16 1014.6
20260501234009 80 304 3.0 6.0 0.00 0.00 0.00 17 1014.9
20260501233506 79 188 0.0 1.0 0.00 0.00 0.00 16 1014.7
20260501233002 79 311 4.0 6.0 0.00 0.00 0.00 17 1014.9
20260501232459 79 258 2.0 4.0 0.00 0.00 0.00 17 1015.1
20260501231956 79 250 4.0 6.0 0.00 0.00 0.00 17 1014.9
20260501231454 78 208 0.0 2.0 0.00 0.00 0.00 17 1014.9
20260501230952 79 243 6.0 8.0 0.00 0.00 0.00 17 1015.2
20260501230451 78 235 2.0 4.0 0.00 0.00 0.00 17 1015.1
20260501225948 79 273 3.0 6.0 0.00 0.00 0.00 16 1015.2
20260501225446 79 210 4.0 9.0 0.00 0.00 0.00 17 1015.2
20260501224941 79 202 4.0 4.0 0.00 0.00 0.00 17 1015.4
20260501224439 79 283 3.0 4.0 0.00 0.00 0.00 17 1015.5
20260501223936 78 322 3.0 7.0 0.00 0.00 0.00 18 1015.3